STARLINK-30105, 57433

Orbit data source: Space-Track

STARLINK-30105, 57433 is a payload satellite owned by SpaceX/Seattle (US) in LEO that was launched on Mon, 24 Jul 2023 UTC via an FALCON 9 launch vehicle from the Air Force Eastern Test Range (AFETR). Payload-class satellites include a variety of spacecraft equipped with specific instruments for various scientific and technological missions. These include communications satellites like Starlink; space stations such as the ISS; scientific satellites like the Hubble; Earth observation satellites from companies like Planet Labs, Umbra, and HawkEye 360; GPS; miniature CubeSats for education and research; and military/defense satellites.

Loading next visibility...
Identifier
57433, 2023-105D
Orbit
LEO
Country
Flag of USUS
Related business
Manufacturer
SpaceX/Seattle
Mission
Operational Commercial Communications
Bus & Motor
STARLINK V2M, Unknown motor
Mass
730 kg wet, ~700 kg dry
Launch date (UTC)
2023-07-24 (3 years ago)
Launch vehicle
FALCON 9
Launch site
Air Force Eastern Test Range (AFETR)
Object type
Payload
Rocket body
Debris
Shape & HBR
Box + 2 Pan, 17.7 m
Radar Cross Section
33.884 m², Large (>1 m²)

Expand to show TLE details & history
Last TLE update: 2 days ago

TLE from 2 days ago
0 STARLINK-30105
1 57433U 23105D   26171.07273980  .00001086  00000-0  48999-4 0  9994
2 57433  43.0024 172.6293 0001812 279.8247  80.2400 15.27580367163983
Epoch: 2026-06-20T01:44Z
TLE epoch observation values (Epoch: 2026-06-20T01:44:44.718Z)
Latitude
-0.00003°
Longitude
-121.84967°
Altitude
482.613 km
Speed
7.626 km/s
True Right ascension
11h 30m 31s
True Declination
0° 00' 00"
Sunlit
Object was in daylight at epoch
Visualization orbit readout
Latitude
Unknown
Longitude
Unknown
Altitude
Unknown
Speed
Unknown
Apparent Right ascension
Unknown
Apparent Declination
Unknown
Sunlit
N/A
Visualization observer readout
Local Sidereal Time
21:25:26
Azimuth
Unknown
Elevation
Unknown
Doppler factor
Unknown
Orbital elements
Apogee altitude
486.236 km
Perigee altitude
483.749 km
Semi-major axis
6,863.13 km
Eccentricity
0.00018
Inclination
43.0024°
RAAN
172.6293°
Arg. of periapsis
279.8247°
True anomaly
80.26046°
Mean anomaly
80.24°
Eccentric anomaly
80.25023°
Mean motion
3.81733 °/min
Orbital period
94.31 mins
BSTAR
0.000048999
Loading maneuver chart data...
Computing Atmospheric mass density...

Documentation

Showing up to 5 results
|